DLH9928 EDDF-LETL

Flight info

Callsign DLH9928
Flight time N/A
Altitude 39000
Route ANEKI2L/18 ANEKI Y163 HERBI Y164 MOPAN/N0476F410 DCT LUTIX DCT BENOT DCT NEMOS DCT NINTU DCT REPSI DCT LERGA DCT MINSO DCT NARAK DCT AGN DCT MAQAB DCT TIVLI N869 EXEMU M176 DISVU
Aircraft A346/H-SDE2E3FGHIJ3J4J5M1RWXY/LB1D1

Departure

Time 2026-05-06 15:56
Airport Frankfurt Main Airport (EDDF)

Arrival

Time N/A
Airport Teruel Airport (LETL)
Time Latitude Longitude Altitude Speed Heading
2026-05-06 15:24 50.04635 8.55949 364 ft 0 kts 340°
2026-05-06 15:44 50.04621 8.55957 366 ft 4 kts 339°
2026-05-06 15:44 50.04598 8.55970 370 ft 4 kts 336°
2026-05-06 15:45 50.04579 8.55989 367 ft 4 kts 308°
2026-05-06 15:45 50.04572 8.56016 370 ft 4 kts 272°
2026-05-06 15:45 50.04575 8.56054 371 ft 4 kts 252°
2026-05-06 15:45 50.04584 8.56091 369 ft 2 kts 250°
2026-05-06 15:46 50.04584 8.56094 369 ft 0 kts 250°
2026-05-06 15:48 50.04584 8.56093 369 ft 1 kts 250°
2026-05-06 15:48 50.04573 8.56046 368 ft 10 kts 249°
2026-05-06 15:48 50.04522 8.55959 371 ft 13 kts 202°
2026-05-06 15:49 50.04422 8.55913 370 ft 17 kts 185°
2026-05-06 15:49 50.04313 8.55947 365 ft 16 kts 154°
2026-05-06 15:49 50.04247 8.55942 369 ft 9 kts 240°
2026-05-06 15:49 50.04222 8.55862 367 ft 10 kts 246°
2026-05-06 15:50 50.04189 8.55740 365 ft 14 kts 252°
2026-05-06 15:50 50.04160 8.55609 367 ft 13 kts 250°
2026-05-06 15:50 50.04124 8.55454 366 ft 17 kts 249°
2026-05-06 15:50 50.04079 8.55266 367 ft 19 kts 249°
2026-05-06 15:51 50.04029 8.55057 365 ft 22 kts 249°
2026-05-06 15:51 50.03977 8.54841 364 ft 23 kts 249°
2026-05-06 15:51 50.03919 8.54599 360 ft 25 kts 250°
2026-05-06 15:51 50.03865 8.54385 364 ft 19 kts 240°
2026-05-06 15:52 50.03792 8.54187 361 ft 22 kts 249°
2026-05-06 15:52 50.03740 8.53972 356 ft 20 kts 250°
2026-05-06 15:52 50.03687 8.53751 358 ft 23 kts 250°
2026-05-06 15:52 50.03625 8.53504 351 ft 25 kts 250°
2026-05-06 15:53 50.03570 8.53275 355 ft 20 kts 249°
2026-05-06 15:53 50.03518 8.53059 355 ft 23 kts 249°
2026-05-06 15:53 50.03466 8.52852 353 ft 17 kts 245°
2026-05-06 15:53 50.03440 8.52758 351 ft 0 kts 249°
2026-05-06 15:55 50.03439 8.52753 350 ft 3 kts 249°
2026-05-06 15:55 50.03420 8.52676 349 ft 10 kts 249°
2026-05-06 15:56 50.03368 8.52598 352 ft 14 kts 187°
2026-05-06 15:56 50.02997 8.52598 348 ft 104 kts 179°
2026-05-06 15:56 50.01974 8.52615 399 ft 181 kts 185°
2026-05-06 15:56 50.00679 8.52581 1392 ft 188 kts 182°
2026-05-06 15:57 49.99379 8.52655 2517 ft 186 kts 181°
2026-05-06 15:57 49.98062 8.52767 3344 ft 194 kts 180°
2026-05-06 15:57 49.96634 8.52889 3843 ft 214 kts 180°
2026-05-06 15:57 49.95065 8.53002 4273 ft 237 kts 180°
2026-05-06 15:58 49.93379 8.53122 5280 ft 243 kts 180°
2026-05-06 15:58 49.91737 8.53239 6602 ft 234 kts 180°
2026-05-06 15:58 49.90118 8.53351 7805 ft 234 kts 180°
2026-05-06 15:58 49.88467 8.53462 8835 ft 240 kts 180°
2026-05-06 15:59 49.86777 8.53572 9839 ft 245 kts 180°
2026-05-06 15:59 49.85061 8.53686 10826 ft 248 kts 179°
2026-05-06 15:59 49.83316 8.53803 11820 ft 252 kts 180°
2026-05-06 15:59 49.81548 8.53919 12816 ft 256 kts 179°
2026-05-06 16:00 49.79743 8.54036 13771 ft 261 kts 179°
2026-05-06 16:00 49.77921 8.54064 14618 ft 262 kts 184°
2026-05-06 16:00 49.76067 8.53865 15312 ft 273 kts 186°
2026-05-06 16:00 49.74120 8.53608 15784 ft 290 kts 186°
2026-05-06 16:01 49.72048 8.53325 16260 ft 308 kts 186°
2026-05-06 16:01 49.69847 8.53029 16742 ft 326 kts 186°
2026-05-06 16:01 49.67525 8.52718 17212 ft 344 kts 185°
2026-05-06 16:01 49.65094 8.52397 17830 ft 356 kts 185°
2026-05-06 16:02 49.62611 8.52069 18744 ft 358 kts 185°
2026-05-06 16:02 49.60121 8.51744 19642 ft 361 kts 185°
2026-05-06 16:02 49.57605 8.51415 20496 ft 365 kts 185°
2026-05-06 16:02 49.55088 8.51085 21277 ft 370 kts 186°
2026-05-06 16:03 49.52498 8.50745 22077 ft 376 kts 186°
2026-05-06 16:03 49.49872 8.50401 22877 ft 381 kts 186°
2026-05-06 16:03 49.47220 8.50054 23633 ft 385 kts 186°
2026-05-06 16:03 49.44530 8.49704 24345 ft 389 kts 186°
2026-05-06 16:04 49.41830 8.49347 25085 ft 391 kts 185°
2026-05-06 16:04 49.39108 8.48990 25823 ft 394 kts 185°
2026-05-06 16:04 49.36365 8.48636 26533 ft 397 kts 185°
2026-05-06 16:04 49.33597 8.48278 27250 ft 400 kts 185°
2026-05-06 16:05 49.30815 8.47917 27944 ft 404 kts 185°
2026-05-06 16:05 49.27995 8.47551 28664 ft 407 kts 185°
2026-05-06 16:05 49.25193 8.47186 29354 ft 409 kts 185°
2026-05-06 16:05 49.22345 8.46814 30023 ft 412 kts 185°
2026-05-06 16:06 49.19480 8.46438 30604 ft 415 kts 185°
2026-05-06 16:06 49.16576 8.46062 31222 ft 416 kts 185°
2026-05-06 16:06 49.13679 8.45692 31791 ft 418 kts 185°
2026-05-06 16:06 49.10778 8.45320 32350 ft 421 kts 186°
2026-05-06 16:07 49.07861 8.44849 32897 ft 424 kts 188°
2026-05-06 16:07 49.04946 8.44150 33424 ft 426 kts 191°
2026-05-06 16:07 49.02036 8.43215 34004 ft 425 kts 194°
2026-05-06 16:07 48.99183 8.42209 34596 ft 424 kts 194°
2026-05-06 16:08 48.96294 8.41211 35145 ft 424 kts 194°
2026-05-06 16:08 48.93409 8.40217 35619 ft 425 kts 194°
2026-05-06 16:08 48.90501 8.39213 36059 ft 427 kts 194°
2026-05-06 16:08 48.87633 8.38222 36490 ft 429 kts 194°
2026-05-06 16:09 48.84697 8.37207 36938 ft 430 kts 194°
2026-05-06 16:09 48.81783 8.36200 37346 ft 431 kts 194°
2026-05-06 16:09 48.78849 8.35185 37676 ft 434 kts 194°
2026-05-06 16:09 48.75908 8.34131 37965 ft 437 kts 195°
2026-05-06 16:10 48.72950 8.33044 38261 ft 440 kts 195°
2026-05-06 16:10 48.69936 8.31934 38543 ft 443 kts 195°
2026-05-06 16:10 48.66961 8.30843 38760 ft 445 kts 195°
2026-05-06 16:10 48.63913 8.29729 38824 ft 447 kts 195°
2026-05-06 16:11 48.57881 8.27536 38831 ft 448 kts 195°
2026-05-06 16:11 48.51792 8.25332 38838 ft 448 kts 195°
2026-05-06 16:12 48.45710 8.23121 38844 ft 448 kts 195°
2026-05-06 16:12 48.39682 8.20915 38846 ft 448 kts 195°
2026-05-06 16:13 48.33635 8.18715 38853 ft 448 kts 195°
2026-05-06 16:13 48.27582 8.16327 38855 ft 448 kts 199°
2026-05-06 16:14 48.21737 8.13114 38856 ft 447 kts 204°
2026-05-06 16:14 48.16123 8.09104 38856 ft 446 kts 207°
2026-05-06 16:15 48.10552 8.05000 39154 ft 450 kts 207°
2026-05-06 16:15 48.07753 8.02942 39534 ft 447 kts 207°
2026-05-06 16:15 48.04946 8.00879 39893 ft 446 kts 207°
2026-05-06 16:16 48.02163 7.98834 40180 ft 446 kts 207°
2026-05-06 16:16 47.99379 7.96789 40440 ft 446 kts 207°
2026-05-06 16:16 47.96594 7.94747 40693 ft 446 kts 207°
2026-05-06 16:16 47.93803 7.92703 40859 ft 446 kts 207°
2026-05-06 16:17 47.88233 7.88629 40868 ft 445 kts 207°
2026-05-06 16:17 47.82666 7.84569 40877 ft 445 kts 207°
2026-05-06 16:18 47.77105 7.80521 40882 ft 445 kts 207°
2026-05-06 16:18 47.71544 7.76483 40881 ft 444 kts 207°
2026-05-06 16:19 47.65986 7.72458 40884 ft 444 kts 207°
2026-05-06 16:19 47.60472 7.68474 40883 ft 444 kts 207°
2026-05-06 16:20 47.54908 7.64464 40882 ft 444 kts 207°
2026-05-06 16:20 47.49340 7.60456 40882 ft 443 kts 207°
2026-05-06 16:21 47.43813 7.56495 40883 ft 443 kts 207°
2026-05-06 16:21 47.38255 7.52519 40887 ft 443 kts 207°
2026-05-06 16:22 47.32695 7.48553 40900 ft 443 kts 207°
2026-05-06 16:22 47.27172 7.44622 40913 ft 445 kts 207°
2026-05-06 16:23 47.21720 7.40258 40909 ft 444 kts 213°
2026-05-06 16:23 47.16711 7.34941 40911 ft 444 kts 220°
2026-05-06 16:24 47.12922 7.29828 40910 ft 444 kts 226°
2026-05-06 16:24 47.08892 7.22990 40891 ft 444 kts 231°
2026-05-06 16:25 47.05025 7.15883 40904 ft 444 kts 231°
2026-05-06 16:25 47.01164 7.08804 40906 ft 444 kts 231°
2026-05-06 16:26 46.97329 7.01798 40909 ft 444 kts 231°
2026-05-06 16:26 46.93463 6.94761 40919 ft 443 kts 231°
2026-05-06 16:27 46.89603 6.87742 40910 ft 444 kts 231°
2026-05-06 16:27 46.85718 6.80697 40911 ft 444 kts 231°
2026-05-06 16:28 46.81822 6.73658 40911 ft 444 kts 230°
2026-05-06 16:28 46.77940 6.66666 40917 ft 444 kts 230°
2026-05-06 16:29 46.74039 6.59662 40907 ft 444 kts 231°
2026-05-06 16:29 46.70136 6.52667 40908 ft 444 kts 230°
2026-05-06 16:30 46.66862 6.46815 40917 ft 445 kts 231°
2026-05-06 16:30 46.62303 6.38688 40909 ft 445 kts 230°
2026-05-06 16:31 46.58371 6.31696 40909 ft 446 kts 230°
2026-05-06 16:31 46.54439 6.24724 40907 ft 446 kts 230°
2026-05-06 16:32 46.50502 6.17759 40911 ft 446 kts 230°
2026-05-06 16:32 46.46559 6.10801 40913 ft 446 kts 230°
2026-05-06 16:33 46.42638 6.03900 40910 ft 446 kts 230°
2026-05-06 16:34 46.36704 5.93491 40911 ft 446 kts 230°
2026-05-06 16:34 46.32741 5.86560 40908 ft 446 kts 230°
2026-05-06 16:35 46.28786 5.79661 40910 ft 446 kts 230°
2026-05-06 16:35 46.24805 5.72735 40910 ft 446 kts 230°
2026-05-06 16:36 46.20835 5.65850 40904 ft 445 kts 230°
2026-05-06 16:36 46.16889 5.59021 40908 ft 445 kts 230°
2026-05-06 16:37 46.13130 5.51916 40908 ft 447 kts 235°
2026-05-06 16:37 46.09589 5.44516 40906 ft 447 kts 235°
2026-05-06 16:38 46.06062 5.37180 40904 ft 447 kts 235°
2026-05-06 16:38 46.02504 5.29795 40900 ft 446 kts 235°
2026-05-06 16:39 45.98967 5.22473 40904 ft 446 kts 235°
2026-05-06 16:39 45.95444 5.15195 40905 ft 446 kts 234°
2026-05-06 16:40 45.91861 5.07819 40910 ft 447 kts 235°
2026-05-06 16:40 45.88299 5.00498 40909 ft 448 kts 235°
2026-05-06 16:41 45.84729 4.93181 40902 ft 447 kts 235°
2026-05-06 16:41 45.81169 4.85905 40909 ft 447 kts 234°
2026-05-06 16:42 45.77583 4.78593 40911 ft 447 kts 234°
2026-05-06 16:42 45.73999 4.71308 40908 ft 447 kts 234°
2026-05-06 16:43 45.70415 4.64042 40900 ft 448 kts 234°
2026-05-06 16:43 45.66807 4.56740 40885 ft 448 kts 234°
2026-05-06 16:44 45.63226 4.49519 40887 ft 448 kts 234°
2026-05-06 16:44 45.59621 4.42265 40884 ft 448 kts 234°
2026-05-06 16:45 45.56002 4.35008 40883 ft 448 kts 234°
2026-05-06 16:45 45.52378 4.27756 40893 ft 448 kts 234°
2026-05-06 16:46 45.48751 4.20506 40881 ft 449 kts 234°
2026-05-06 16:46 45.45117 4.13262 40883 ft 448 kts 234°
2026-05-06 16:47 45.41476 4.06032 40887 ft 448 kts 234°
2026-05-06 16:47 45.37861 3.98872 40889 ft 448 kts 234°
2026-05-06 16:48 45.34211 3.91664 40894 ft 448 kts 234°
2026-05-06 16:48 45.30556 3.84469 40895 ft 448 kts 234°
2026-05-06 16:49 45.26897 3.77284 40902 ft 448 kts 234°
2026-05-06 16:49 45.23284 3.70060 40885 ft 448 kts 235°
2026-05-06 16:50 45.19720 3.62784 40887 ft 448 kts 235°
2026-05-06 16:50 45.16145 3.55521 40885 ft 448 kts 235°
2026-05-06 16:51 45.12565 3.48280 40886 ft 448 kts 235°
2026-05-06 16:51 45.08986 3.41064 40890 ft 447 kts 235°
2026-05-06 16:52 45.05424 3.33905 40894 ft 447 kts 235°
2026-05-06 16:52 45.01837 3.26714 40895 ft 447 kts 235°
2026-05-06 16:53 44.98255 3.19550 40899 ft 447 kts 235°
2026-05-06 16:53 44.94654 3.12371 40902 ft 446 kts 235°
2026-05-06 16:54 44.91062 3.05226 40918 ft 446 kts 234°
2026-05-06 16:54 44.87464 2.98093 40909 ft 447 kts 235°
2026-05-06 16:55 44.83915 2.90860 40911 ft 447 kts 237°
2026-05-06 16:55 44.80534 2.83494 40919 ft 447 kts 237°
2026-05-06 16:56 44.77134 2.76122 40927 ft 447 kts 237°
2026-05-06 16:56 44.73759 2.68822 40930 ft 447 kts 237°
2026-05-06 16:57 44.70352 2.61473 40931 ft 448 kts 237°
2026-05-06 16:57 44.66939 2.54129 40934 ft 449 kts 237°
2026-05-06 16:58 44.63515 2.46779 40935 ft 448 kts 237°
2026-05-06 16:58 44.60094 2.39455 40934 ft 449 kts 237°
2026-05-06 16:59 44.56667 2.32138 40932 ft 447 kts 237°
2026-05-06 16:59 44.53237 2.24836 40936 ft 448 kts 237°
2026-05-06 17:00 44.49826 2.17587 40931 ft 448 kts 237°
2026-05-06 17:00 44.46383 2.10291 40930 ft 448 kts 237°
2026-05-06 17:01 44.42936 2.03007 40928 ft 448 kts 237°
2026-05-06 17:01 44.39484 1.95731 40915 ft 447 kts 237°